Home > Weather > Nadi > Past weeks

Flag for Fiji Past Weather in Nadi, Fiji — Yesterday and Last 2 Weeks

Now
70 °F

Passing clouds.


Feels Like: 70 °F
Forecast: 74 / 85 °F
Wind: 3 mph from East

Location: Nandi

Current Time: Jul 25, 2016 at 4:48:43 AM

Latest Report: Jul 25, 2016 at 4:00 AM


Visibility: N/A

Pressure: 29.95 "Hg

Humidity: 83%

Dew Point: 64 °F

Location of NadiLocation

Past Weather in Nadi — Graph

°F

Nadi Temperature Yesterday

Maximum temperature yesterday: 82 °F (at 10:00 AM)
Minimum temperature yesterday: 66 °F (at 4:00 AM)
Average temperature yesterday: 74 °F

High & Low Weather Summary for the Past Weeks

 TemperatureHumidityPressure
High84 °F (Jul 16, 2:00 PM)100% (Jul 10, 9:00 PM)30.09 "Hg (Jul 10, 9:00 PM)
Low61 °F (Jul 13, 2:00 AM)40% (Jul 20, 11:00 AM)29.86 "Hg (Jul 10, 2:00 PM)
Average73 °F72%29.97 "Hg
* Reported Jul 10 3:00 AM — Jul 25 3:00 AM, Nadi, Weather by CustomWeather, © 2016

Note: Actual official high and low records may vary slightly from our data, if they occured in-between our weather recording intervals... More about our weather records

Advertising

Nadi Weather History for the Previous 24 Hours

Scroll right to see more
 ConditionsComfort  
Time TempWeatherWind HumidityBarometerVisibility
3:00 AM
Mon, Jul 25
68 °FPassing clouds.No wind88%29.95 "HgN/A
2:00 AM68 °FPassing clouds.5 mph88%29.98 "HgN/A
1:00 AM70 °FPassing clouds.No wind83%29.98 "HgN/A
12:00 AM70 °FPassing clouds.No wind88%29.98 "HgN/A
11:00 PM
Sun, Jul 24
70 °FPassing clouds.3 mph88%29.98 "HgN/A
10:00 PM72 °FPassing clouds.3 mph88%29.98 "HgN/A
9:00 PM72 °FPassing clouds.3 mph88%29.95 "HgN/A
8:00 PM75 °FPassing clouds.3 mph83%29.95 "HgN/A
7:00 PM75 °FPassing clouds.3 mph83%29.92 "HgN/A
6:00 PM77 °FPassing clouds.8 mph79%29.92 "HgN/A
5:00 PM79 °FPassing clouds.12 mph65%29.89 "HgN/A
4:00 PM81 °FPassing clouds.13 mph66%29.89 "HgN/A
3:00 PM81 °FPassing clouds.13 mph66%29.89 "HgN/A
2:00 PM82 °FPassing clouds.13 mph58%29.92 "HgN/A
1:00 PM81 °FPassing clouds.12 mph62%29.92 "HgN/A
12:00 PM81 °FPassing clouds.10 mph62%29.95 "HgN/A
11:00 AM82 °FPassing clouds.7 mph55%29.98 "HgN/A
10:00 AM82 °FPassing clouds.No wind62%30.01 "HgN/A
9:00 AM77 °FPassing clouds.5 mph65%30.01 "HgN/A
8:00 AM72 °FSunny.3 mph78%30.01 "Hg10 mi
7:00 AM66 °FSunny.7 mph88%29.98 "Hg10 mi
6:00 AM66 °FPassing clouds.7 mph88%29.98 "HgN/A
5:00 AM68 °FPassing clouds.8 mph83%29.95 "HgN/A
4:00 AM66 °FPassing clouds.5 mph94%29.98 "HgN/A
Weather by CustomWeather, © 2016

See weather overviewHow to use our weather pages